Time,TemperatureF,DewpointF,PressureIn,WindDirection,WindDirectionDegrees,WindSpeedMPH,WindSpeedGustMPH,Humidity,HourlyPrecipIn,Conditions,Clouds,dailyrainin,SoftwareType,DateUTC
2013-12-24 00:00:00,36.0,28.8,30.53,SSE,155,1.0,13.0,75,0.00,,,0.00,Wunderground v.1.15,2013-12-24 06:00:00,
2013-12-24 00:10:00,36.1,28.6,30.52,SSE,155,0.0,13.0,74,0.00,,,0.00,Wunderground v.1.15,2013-12-24 06:10:00,
2013-12-24 00:20:00,35.8,28.6,30.52,SSE,155,0.0,13.0,75,0.00,,,0.00,Wunderground v.1.15,2013-12-24 06:20:00,
2013-12-24 00:30:00,35.4,28.3,30.52,SSE,155,0.0,13.0,75,0.00,,,0.00,Wunderground v.1.15,2013-12-24 06:30:00,
2013-12-24 00:40:00,35.1,28.3,30.52,SSE,155,0.0,13.0,76,0.00,,,0.00,Wunderground v.1.15,2013-12-24 06:40:00,
2013-12-24 00:50:00,34.8,28.0,30.52,SSE,155,0.0,13.0,76,0.00,,,0.00,Wunderground v.1.15,2013-12-24 06:50:00,
2013-12-24 01:00:00,34.6,28.1,30.52,SSE,155,0.0,13.0,77,0.00,,,0.00,Wunderground v.1.15,2013-12-24 07:00:00,
2013-12-24 01:10:00,34.3,27.8,30.51,SSE,155,0.0,13.0,77,0.00,,,0.00,Wunderground v.1.15,2013-12-24 07:10:00,
2013-12-24 01:20:00,34.3,28.2,30.51,SSE,155,0.0,13.0,78,0.00,,,0.00,Wunderground v.1.15,2013-12-24 07:20:00,
2013-12-24 01:30:00,34.2,28.4,30.51,SSE,155,0.0,13.0,79,0.00,,,0.00,Wunderground v.1.15,2013-12-24 07:30:00,
2013-12-24 01:40:00,34.2,28.4,30.51,SSE,155,0.0,13.0,79,0.00,,,0.00,Wunderground v.1.15,2013-12-24 07:40:00,
2013-12-24 01:50:00,34.1,28.6,30.50,SSE,155,0.0,13.0,80,0.00,,,0.00,Wunderground v.1.15,2013-12-24 07:50:00,
2013-12-24 02:00:00,34.0,28.5,30.50,SSE,155,0.0,13.0,80,0.00,,,0.00,Wunderground v.1.15,2013-12-24 08:00:00,
2013-12-24 02:10:00,33.9,28.4,30.50,SSE,155,0.0,13.0,80,0.00,,,0.00,Wunderground v.1.15,2013-12-24 08:10:00,
2013-12-24 02:20:00,34.0,28.5,30.51,SSE,155,0.0,13.0,80,0.00,,,0.00,Wunderground v.1.15,2013-12-24 08:20:00,
2013-12-24 02:30:00,34.0,28.5,30.50,SSE,155,0.0,13.0,80,0.00,,,0.00,Wunderground v.1.15,2013-12-24 08:30:00,
2013-12-24 02:40:00,34.0,28.8,30.50,SSE,155,0.0,13.0,81,0.00,,,0.00,Wunderground v.1.15,2013-12-24 08:40:00,
2013-12-24 02:50:00,34.1,28.6,30.50,SSE,155,0.0,13.0,80,0.00,,,0.00,Wunderground v.1.15,2013-12-24 08:50:00,
2013-12-24 03:00:00,34.3,28.8,30.49,SSE,155,0.0,13.0,80,0.00,,,0.00,Wunderground v.1.15,2013-12-24 09:00:00,
2013-12-24 03:10:00,34.3,28.8,30.49,SSE,155,0.0,13.0,80,0.00,,,0.00,Wunderground v.1.15,2013-12-24 09:10:00,
2013-12-24 03:20:00,34.1,28.6,30.49,SSE,155,0.0,13.0,80,0.00,,,0.00,Wunderground v.1.15,2013-12-24 09:20:00,
2013-12-24 03:30:00,33.7,28.5,30.49,SSE,155,0.0,13.0,81,0.00,,,0.00,Wunderground v.1.15,2013-12-24 09:30:00,
2013-12-24 03:40:00,33.4,28.5,30.49,SSE,155,0.0,13.0,82,0.00,,,0.00,Wunderground v.1.15,2013-12-24 09:40:00,
2013-12-24 03:50:00,33.0,28.1,30.49,SSE,155,0.0,13.0,82,0.00,,,0.00,Wunderground v.1.15,2013-12-24 09:50:00,
2013-12-24 04:00:00,32.7,28.1,30.49,SSE,155,0.0,13.0,83,0.00,,,0.00,Wunderground v.1.15,2013-12-24 10:00:00,
2013-12-24 04:10:00,32.5,27.9,30.49,SSE,155,0.0,13.0,83,0.00,,,0.00,Wunderground v.1.15,2013-12-24 10:10:00,
2013-12-24 04:20:00,32.3,28.0,30.49,SSE,155,0.0,13.0,84,0.00,,,0.00,Wunderground v.1.15,2013-12-24 10:20:00,
2013-12-24 04:30:00,32.0,27.7,30.49,SSE,155,0.0,13.0,84,0.00,,,0.00,Wunderground v.1.15,2013-12-24 10:30:00,
2013-12-24 04:40:00,31.9,27.9,30.48,SSE,155,0.0,13.0,85,0.00,,,0.00,Wunderground v.1.15,2013-12-24 10:40:00,
2013-12-24 04:50:00,31.8,27.8,30.48,SSE,155,0.0,13.0,85,0.00,,,0.00,Wunderground v.1.15,2013-12-24 10:50:00,
2013-12-24 05:00:00,31.5,27.5,30.48,SSE,155,0.0,13.0,85,0.00,,,0.00,Wunderground v.1.15,2013-12-24 11:00:00,
2013-12-24 05:10:00,31.2,27.2,30.48,SSE,155,0.0,13.0,85,0.00,,,0.00,Wunderground v.1.15,2013-12-24 11:10:00,
2013-12-24 05:20:00,31.1,27.4,30.48,SSE,155,0.0,13.0,86,0.00,,,0.00,Wunderground v.1.15,2013-12-24 11:20:00,
2013-12-24 05:30:00,31.0,27.6,30.48,SSE,155,0.0,13.0,87,0.00,,,0.00,Wunderground v.1.15,2013-12-24 11:30:00,
2013-12-24 05:40:00,31.0,27.6,30.48,SSE,155,0.0,13.0,87,0.00,,,0.00,Wunderground v.1.15,2013-12-24 11:40:00,
2013-12-24 05:50:00,31.2,27.8,30.48,SSE,155,0.0,13.0,87,0.00,,,0.00,Wunderground v.1.15,2013-12-24 11:50:00,
2013-12-24 06:00:00,31.1,27.7,30.48,SSE,155,0.0,13.0,87,0.00,,,0.00,Wunderground v.1.15,2013-12-24 12:00:00,
2013-12-24 06:10:00,31.0,27.6,30.48,SSE,155,0.0,13.0,87,0.00,,,0.00,Wunderground v.1.15,2013-12-24 12:10:00,
2013-12-24 06:20:00,30.8,27.4,30.48,SSE,155,0.0,13.0,87,0.00,,,0.00,Wunderground v.1.15,2013-12-24 12:20:00,
2013-12-24 06:30:00,30.8,27.7,30.48,SSE,155,0.0,13.0,88,0.00,,,0.00,Wunderground v.1.15,2013-12-24 12:30:00,
2013-12-24 06:40:00,30.9,27.8,30.47,SSE,155,0.0,13.0,88,0.00,,,0.00,Wunderground v.1.15,2013-12-24 12:40:00,
2013-12-24 06:50:00,30.9,27.8,30.48,SSE,155,0.0,13.0,88,0.00,,,0.00,Wunderground v.1.15,2013-12-24 12:50:00,
2013-12-24 07:00:00,30.9,27.8,30.48,SSE,155,0.0,13.0,88,0.00,,,0.00,Wunderground v.1.15,2013-12-24 13:00:00,
2013-12-24 07:10:00,30.9,27.8,30.48,SSE,155,0.0,13.0,88,0.00,,,0.00,Wunderground v.1.15,2013-12-24 13:10:00,
2013-12-24 07:20:00,30.9,27.8,30.48,SSE,155,0.0,13.0,88,0.00,,,0.00,Wunderground v.1.15,2013-12-24 13:20:00,
2013-12-24 07:30:00,30.7,27.6,30.48,SSE,155,0.0,13.0,88,0.00,,,0.00,Wunderground v.1.15,2013-12-24 13:30:00,
2013-12-24 07:40:00,30.6,27.5,30.48,SSE,155,0.0,13.0,88,0.00,,,0.00,Wunderground v.1.15,2013-12-24 13:40:00,
2013-12-24 07:50:00,31.0,28.1,30.48,SSE,155,0.0,13.0,89,0.00,,,0.00,Wunderground v.1.15,2013-12-24 13:50:00,
2013-12-24 08:00:00,31.6,28.5,30.48,SSE,155,0.0,13.0,88,0.00,,,0.00,Wunderground v.1.15,2013-12-24 14:00:00,
2013-12-24 08:10:00,32.3,29.1,30.48,SSE,155,0.0,13.0,88,0.00,,,0.00,Wunderground v.1.15,2013-12-24 14:10:00,
2013-12-24 08:20:00,33.1,29.7,30.48,SSE,155,0.0,13.0,87,0.00,,,0.00,Wunderground v.1.15,2013-12-24 14:20:00,
2013-12-24 08:30:00,33.9,29.9,30.48,SSE,155,0.0,13.0,85,0.00,,,0.00,Wunderground v.1.15,2013-12-24 14:30:00,
2013-12-24 08:40:00,34.6,30.6,30.48,SSE,155,0.0,13.0,85,0.00,,,0.00,Wunderground v.1.15,2013-12-24 14:40:00,
2013-12-24 08:50:00,34.9,30.6,30.48,SSE,155,1.0,13.0,84,0.00,,,0.00,Wunderground v.1.15,2013-12-24 14:50:00,
2013-12-24 09:00:00,35.2,30.9,30.48,SSE,155,2.0,13.0,84,0.00,,,0.00,Wunderground v.1.15,2013-12-24 15:00:00,
2013-12-24 09:10:00,35.9,31.5,30.47,SSE,155,2.0,13.0,84,0.00,,,0.00,Wunderground v.1.15,2013-12-24 15:10:00,
2013-12-24 09:20:00,37.2,31.9,30.48,SSE,155,4.0,13.0,81,0.00,,,0.00,Wunderground v.1.15,2013-12-24 15:20:00,
2013-12-24 09:30:00,37.9,32.3,30.48,SSE,153,5.0,13.0,80,0.00,,,0.00,Wunderground v.1.15,2013-12-24 15:30:00,
2013-12-24 09:40:00,38.7,32.4,30.47,SSE,154,5.0,13.0,78,0.00,,,0.00,Wunderground v.1.15,2013-12-24 15:40:00,
2013-12-24 09:50:00,39.3,33.0,30.47,SSE,155,6.0,6.0,78,0.00,,,0.00,Wunderground v.1.15,2013-12-24 15:50:00,
2013-12-24 10:00:00,40.5,33.5,30.47,SSE,157,6.0,13.0,76,0.00,,,0.00,Wunderground v.1.15,2013-12-24 16:00:00,
2013-12-24 10:10:00,41.6,34.3,30.47,SSE,157,6.0,13.0,75,0.00,,,0.00,Wunderground v.1.15,2013-12-24 16:10:00,
2013-12-24 10:20:00,42.9,34.1,30.47,SSE,159,6.0,13.0,71,0.00,,,0.00,Wunderground v.1.15,2013-12-24 16:20:00,
2013-12-24 10:30:00,44.9,34.2,30.47,South,169,7.0,7.0,66,0.00,,,0.00,Wunderground v.1.15,2013-12-24 16:30:00,
2013-12-24 10:40:00,45.6,33.7,30.46,South,171,7.0,13.0,63,0.00,,,0.00,Wunderground v.1.15,2013-12-24 16:40:00,
2013-12-24 10:50:00,46.8,35.3,30.45,SSE,164,7.0,13.0,64,0.00,,,0.00,Wunderground v.1.15,2013-12-24 16:50:00,
2013-12-24 11:00:00,47.5,34.7,30.45,South,173,7.0,7.0,61,0.00,,,0.00,Wunderground v.1.15,2013-12-24 17:00:00,
2013-12-24 11:10:00,48.4,35.1,30.45,SSE,165,7.0,13.0,60,0.00,,,0.00,Wunderground v.1.15,2013-12-24 17:10:00,
2013-12-24 11:20:00,49.3,35.6,30.44,South,171,6.0,13.0,59,0.00,,,0.00,Wunderground v.1.15,2013-12-24 17:20:00,
2013-12-24 11:30:00,50.2,35.1,30.44,South,169,6.0,13.0,56,0.00,,,0.00,Wunderground v.1.15,2013-12-24 17:30:00,
2013-12-24 11:40:00,51.3,35.2,30.43,South,169,7.0,13.0,54,0.00,,,0.00,Wunderground v.1.15,2013-12-24 17:40:00,
2013-12-24 11:50:00,52.4,35.3,30.42,South,173,7.0,13.0,52,0.00,,,0.00,Wunderground v.1.15,2013-12-24 17:50:00,
2013-12-24 12:00:00,53.0,34.3,30.42,SSE,164,7.0,7.0,49,0.00,,,0.00,Wunderground v.1.15,2013-12-24 18:00:00,
2013-12-24 12:10:00,54.2,35.9,30.40,South,178,8.0,13.0,50,0.00,,,0.00,Wunderground v.1.15,2013-12-24 18:10:00,
2013-12-24 12:20:00,55.4,35.5,30.39,SSW,194,6.0,13.0,47,0.00,,,0.00,Wunderground v.1.15,2013-12-24 18:20:00,
2013-12-24 12:30:00,55.7,34.1,30.38,South,174,8.0,13.0,44,0.00,,,0.00,Wunderground v.1.15,2013-12-24 18:30:00,
2013-12-24 12:40:00,55.9,34.3,30.38,SSW,196,10.0,10.0,44,0.00,,,0.00,Wunderground v.1.15,2013-12-24 18:40:00,
2013-12-24 12:50:00,56.4,35.3,30.37,South,178,8.0,13.0,45,0.00,,,0.00,Wunderground v.1.15,2013-12-24 18:50:00,
2013-12-24 13:00:00,56.9,34.6,30.35,South,170,8.0,14.0,43,0.00,,,0.00,Wunderground v.1.15,2013-12-24 19:00:00,
2013-12-24 13:10:00,57.5,35.2,30.34,South,180,10.0,15.0,43,0.00,,,0.00,Wunderground v.1.15,2013-12-24 19:10:00,
2013-12-24 13:20:00,57.6,33.4,30.33,SSE,157,12.0,14.0,40,0.00,,,0.00,Wunderground v.1.15,2013-12-24 19:20:00,
2013-12-24 13:30:00,57.8,34.2,30.33,SSW,199,13.0,14.0,41,0.00,,,0.00,Wunderground v.1.15,2013-12-24 19:30:00,
2013-12-24 13:40:00,57.6,34.1,30.32,South,190,12.0,15.0,41,0.00,,,0.00,Wunderground v.1.15,2013-12-24 19:40:00,
2013-12-24 13:50:00,58.1,33.2,30.32,South,184,11.0,13.0,39,0.00,,,0.00,Wunderground v.1.15,2013-12-24 19:50:00,
2013-12-24 14:00:00,58.4,33.5,30.31,South,181,9.0,13.0,39,0.00,,,0.00,Wunderground v.1.15,2013-12-24 20:00:00,
2013-12-24 14:10:00,58.9,34.6,30.31,SSW,193,9.0,9.0,40,0.00,,,0.00,Wunderground v.1.15,2013-12-24 20:10:00,
2013-12-24 14:20:00,59.0,33.4,30.30,SSW,192,9.0,14.0,38,0.00,,,0.00,Wunderground v.1.15,2013-12-24 20:20:00,
2013-12-24 14:30:00,59.0,33.4,30.29,South,186,10.0,19.0,38,0.00,,,0.00,Wunderground v.1.15,2013-12-24 20:30:00,
2013-12-24 14:40:00,58.8,34.5,30.29,SSW,192,11.0,13.0,40,0.00,,,0.00,Wunderground v.1.15,2013-12-24 20:40:00,
2013-12-24 14:50:00,59.1,33.5,30.28,SSW,200,11.0,11.0,38,0.00,,,0.00,Wunderground v.1.15,2013-12-24 20:50:00,
2013-12-24 15:00:00,59.3,34.3,30.28,South,179,9.0,13.0,39,0.00,,,0.00,Wunderground v.1.15,2013-12-24 21:00:00,
2013-12-24 15:10:00,59.8,34.8,30.28,South,169,10.0,13.0,39,0.00,,,0.00,Wunderground v.1.15,2013-12-24 21:10:00,
2013-12-24 15:20:00,60.2,33.1,30.27,South,178,10.0,19.0,36,0.00,,,0.00,Wunderground v.1.15,2013-12-24 21:20:00,
2013-12-24 15:30:00,59.9,32.9,30.27,SSW,192,11.0,11.0,36,0.00,,,0.00,Wunderground v.1.15,2013-12-24 21:30:00,
2013-12-24 15:40:00,60.0,32.9,30.27,SSW,193,9.0,9.0,36,0.00,,,0.00,Wunderground v.1.15,2013-12-24 21:40:00,
2013-12-24 15:50:00,59.3,33.0,30.26,South,187,11.0,11.0,37,0.00,,,0.00,Wunderground v.1.15,2013-12-24 21:50:00,
2013-12-24 16:00:00,59.3,33.7,30.26,South,175,9.0,13.0,38,0.00,,,0.00,Wunderground v.1.15,2013-12-24 22:00:00,
2013-12-24 16:10:00,59.0,33.4,30.26,South,175,11.0,11.0,38,0.00,,,0.00,Wunderground v.1.15,2013-12-24 22:10:00,
2013-12-24 16:20:00,59.1,32.8,30.25,South,178,8.0,13.0,37,0.00,,,0.00,Wunderground v.1.15,2013-12-24 22:20:00,
2013-12-24 16:30:00,58.6,33.0,30.25,South,182,10.0,10.0,38,0.00,,,0.00,Wunderground v.1.15,2013-12-24 22:30:00,
2013-12-24 16:40:00,58.1,31.9,30.25,South,174,9.0,13.0,37,0.00,,,0.00,Wunderground v.1.15,2013-12-24 22:40:00,
2013-12-24 16:50:00,57.6,32.8,30.25,South,172,10.0,13.0,39,0.00,,,0.00,Wunderground v.1.15,2013-12-24 22:50:00,
2013-12-24 17:00:00,57.1,32.4,30.24,SSE,163,10.0,14.0,39,0.00,,,0.00,Wunderground v.1.15,2013-12-24 23:00:00,
2013-12-24 17:10:00,56.5,31.2,30.25,South,178,10.0,13.0,38,0.00,,,0.00,Wunderground v.1.15,2013-12-24 23:10:00,
2013-12-24 17:20:00,55.9,31.3,30.24,South,175,10.0,10.0,39,0.00,,,0.00,Wunderground v.1.15,2013-12-24 23:20:00,
2013-12-24 17:30:00,55.1,31.2,30.24,South,175,9.0,13.0,40,0.00,,,0.00,Wunderground v.1.15,2013-12-24 23:30:00,
2013-12-24 17:40:00,54.3,31.7,30.24,South,179,7.0,7.0,42,0.00,,,0.00,Wunderground v.1.15,2013-12-24 23:40:00,
2013-12-24 17:50:00,53.4,32.0,30.24,South,179,6.0,13.0,44,0.00,,,0.00,Wunderground v.1.15,2013-12-24 23:50:00,
2013-12-24 18:00:00,52.5,32.8,30.24,South,179,6.0,6.0,47,0.00,,,0.00,Wunderground v.1.15,2013-12-25 00:00:00,
2013-12-24 18:10:00,51.5,33.0,30.24,South,178,5.0,13.0,49,0.00,,,0.00,Wunderground v.1.15,2013-12-25 00:10:00,
2013-12-24 18:20:00,51.1,32.1,30.24,South,178,6.0,13.0,48,0.00,,,0.00,Wunderground v.1.15,2013-12-25 00:20:00,
2013-12-24 18:30:00,50.7,32.2,30.24,South,178,6.0,6.0,49,0.00,,,0.00,Wunderground v.1.15,2013-12-25 00:30:00,
2013-12-24 18:40:00,50.1,32.2,30.24,South,178,5.0,5.0,50,0.00,,,0.00,Wunderground v.1.15,2013-12-25 00:40:00,
2013-12-24 18:50:00,49.7,32.3,30.24,South,178,4.0,4.0,51,0.00,,,0.00,Wunderground v.1.15,2013-12-25 00:50:00,
2013-12-24 19:00:00,49.1,31.7,30.24,South,178,3.0,3.0,51,0.00,,,0.00,Wunderground v.1.15,2013-12-25 01:00:00,
2013-12-24 19:10:00,48.2,32.8,30.24,South,178,4.0,13.0,55,0.00,,,0.00,Wunderground v.1.15,2013-12-25 01:10:00,
2013-12-24 19:20:00,47.6,32.7,30.23,South,178,4.0,13.0,56,0.00,,,0.00,Wunderground v.1.15,2013-12-25 01:20:00,
2013-12-24 19:30:00,47.2,32.7,30.23,South,178,4.0,13.0,57,0.00,,,0.00,Wunderground v.1.15,2013-12-25 01:30:00,
2013-12-24 19:40:00,46.9,32.4,30.23,South,178,4.0,13.0,57,0.00,,,0.00,Wunderground v.1.15,2013-12-25 01:40:00,
2013-12-24 19:50:00,46.7,32.7,30.23,South,178,5.0,5.0,58,0.00,,,0.00,Wunderground v.1.15,2013-12-25 01:50:00,
2013-12-24 20:00:00,46.7,32.3,30.24,South,178,3.0,3.0,57,0.00,,,0.00,Wunderground v.1.15,2013-12-25 02:00:00,
2013-12-24 20:10:00,46.3,31.9,30.24,South,178,2.0,13.0,57,0.00,,,0.00,Wunderground v.1.15,2013-12-25 02:10:00,
2013-12-24 20:20:00,46.1,31.7,30.24,South,178,3.0,13.0,57,0.00,,,0.00,Wunderground v.1.15,2013-12-25 02:20:00,
2013-12-24 20:30:00,45.6,31.7,30.24,South,178,2.0,2.0,58,0.00,,,0.00,Wunderground v.1.15,2013-12-25 02:30:00,
2013-12-24 20:40:00,45.1,31.2,30.24,South,178,0.0,13.0,58,0.00,,,0.00,Wunderground v.1.15,2013-12-25 02:40:00,
2013-12-24 20:50:00,44.6,31.1,30.24,South,178,0.0,13.0,59,0.00,,,0.00,Wunderground v.1.15,2013-12-25 02:50:00,
2013-12-24 21:00:00,44.5,30.6,30.24,South,178,1.0,13.0,58,0.00,,,0.00,Wunderground v.1.15,2013-12-25 03:00:00,
2013-12-24 21:10:00,44.0,30.6,30.24,South,178,0.0,13.0,59,0.00,,,0.00,Wunderground v.1.15,2013-12-25 03:10:00,
2013-12-24 21:20:00,43.4,30.8,30.24,South,178,0.0,13.0,61,0.00,,,0.00,Wunderground v.1.15,2013-12-25 03:20:00,
2013-12-24 21:30:00,42.7,30.6,30.24,South,178,0.0,13.0,62,0.00,,,0.00,Wunderground v.1.15,2013-12-25 03:30:00,
2013-12-24 21:40:00,42.4,30.3,30.24,South,178,0.0,13.0,62,0.00,,,0.00,Wunderground v.1.15,2013-12-25 03:40:00,
2013-12-24 21:50:00,42.2,30.1,30.24,South,178,0.0,13.0,62,0.00,,,0.00,Wunderground v.1.15,2013-12-25 03:50:00,
2013-12-24 22:00:00,42.0,29.9,30.24,South,178,0.0,13.0,62,0.00,,,0.00,Wunderground v.1.15,2013-12-25 04:00:00,
2013-12-24 22:10:00,41.8,30.1,30.24,South,178,0.0,13.0,63,0.00,,,0.00,Wunderground v.1.15,2013-12-25 04:10:00,
2013-12-24 22:20:00,41.5,29.8,30.24,South,178,0.0,13.0,63,0.00,,,0.00,Wunderground v.1.15,2013-12-25 04:20:00,
2013-12-24 22:30:00,41.3,30.0,30.24,South,178,0.0,13.0,64,0.00,,,0.00,Wunderground v.1.15,2013-12-25 04:30:00,
2013-12-24 22:40:00,41.1,29.5,30.23,South,178,0.0,13.0,63,0.00,,,0.00,Wunderground v.1.15,2013-12-25 04:40:00,
2013-12-24 22:50:00,41.2,29.2,30.23,South,178,0.0,13.0,62,0.00,,,0.00,Wunderground v.1.15,2013-12-25 04:50:00,
2013-12-24 23:00:00,41.1,29.1,30.23,South,178,0.0,13.0,62,0.00,,,0.00,Wunderground v.1.15,2013-12-25 05:00:00,
2013-12-24 23:10:00,41.0,30.5,30.23,South,178,0.0,13.0,66,0.00,,,0.00,Wunderground v.1.15,2013-12-25 05:10:00,
2013-12-24 23:20:00,40.7,29.1,30.23,South,178,0.0,13.0,63,0.00,,,0.00,Wunderground v.1.15,2013-12-25 05:20:00,
2013-12-24 23:30:00,40.5,28.9,30.23,South,178,0.0,13.0,63,0.00,,,0.00,Wunderground v.1.15,2013-12-25 05:30:00,
2013-12-24 23:40:00,40.3,28.7,30.23,South,178,0.0,13.0,63,0.00,,,0.00,Wunderground v.1.15,2013-12-25 05:40:00,
2013-12-24 23:50:00,40.2,28.6,30.23,South,178,0.0,13.0,63,0.00,,,0.00,Wunderground v.1.15,2013-12-25 05:50:00,